This is the latest recevied weather packets stored in our database for station/object N6GPM. If no packets are shown the sender has not sent any weather packets the latest 10 day(s).
| Time | Temp. | Humidity | Pressure | Rain* | Wind** | Luminosity | Snow |
|---|---|---|---|---|---|---|---|
| 1778008582 | 15.56° C | 58% | 1018.4 hPa | 0 mm | - | 999 W/m² | - |
| 1778008280 | 15.56° C | 59% | 1018.5 hPa | 0 mm | - | 450 W/m² | - |
| 1778007975 | 15.56° C | 60% | 1018.1 hPa | 0 mm | - | 390 W/m² | - |
| 1778007670 | 15.56° C | 62% | 1018.2 hPa | 0 mm | - | 497 W/m² | - |
| 1778007368 | 15.56° C | 62% | 1018.2 hPa | 0 mm | - | 865 W/m² | - |
| 1778007064 | 15° C | 63% | 1018.4 hPa | 0 mm | - | 466 W/m² | - |
| 1778006760 | 15.56° C | 61% | 1018.2 hPa | 0 mm | - | 435 W/m² | - |
| 1778006457 | 15° C | 62% | 1018.5 hPa | 0 mm | - | 393 W/m² | - |
| 1778006154 | 14.44° C | 64% | 1018.3 hPa | 0 mm | - | 996 W/m² | - |
| 1778005852 | 14.44° C | 65% | 1018.2 hPa | 0 mm | - | 408 W/m² | - |
| 1778005548 | 15° C | 67% | 1018.4 hPa | 0 mm | - | 375 W/m² | - |
| 1778005245 | 14.44° C | 69% | 1018.3 hPa | 0 mm | - | 974 W/m² | - |
| 1778004941 | 13.89° C | 71% | 1018.4 hPa | 0 mm | - | 416 W/m² | - |
| 1778004639 | 13.89° C | 71% | 1018.3 hPa | 0 mm | - | 308 W/m² | - |
| 1778004334 | 14.44° C | 71% | 1018.4 hPa | 0 mm | - | 245 W/m² | - |
| 1778004033 | 14.44° C | 71% | 1018.2 hPa | 0 mm | - | 259 W/m² | - |
| 1778003732 | 13.89° C | 71% | 1018.2 hPa | 0 mm | - | 271 W/m² | - |
| 1778003429 | 13.89° C | 70% | 1018.3 hPa | 0 mm | - | 280 W/m² | - |
| 1778003126 | 13.89° C | 69% | 1018.3 hPa | 0 mm | - | 265 W/m² | - |
| 1778002822 | 13.89° C | 69% | 1018.2 hPa | 0 mm | - | 283 W/m² | - |
| 1778002520 | 13.89° C | 70% | 1018.1 hPa | 0 mm | - | 315 W/m² | - |
| 1778002216 | 13.89° C | 69% | 1018 hPa | 0 mm | - | 348 W/m² | - |
| 1778001914 | 13.89° C | 71% | 1017.9 hPa | 0 mm | - | 1108 W/m² | - |
| 1778001610 | 13.89° C | 72% | 1018.1 hPa | 0 mm | - | 562 W/m² | - |
| 1778001305 | 13.33° C | 73% | 1017.6 hPa | 0 mm | - | 534 W/m² | - |
* Rain latest hour (hover to see other rain measurements)
** Current wind speed in m/s (hover to see current wind gust speed)